PHBVK EGFH-EHRD

Flight info

Callsign PHBVK
Flight time N/A
Altitude 5000
Route VFR
Aircraft STAR/M-SDE1E2E3FGHIJ2J3J4J5M1RWXY/LB1D1

Departure

Time 2026-04-15 11:59
Airport Swansea Airport (EGFH)

Arrival

Time N/A
Airport Rotterdam The Hague Airport (EHRD)
Time Latitude Longitude Altitude Speed Heading
2026-04-15 11:52 51.60923 -4.06316 302 ft 0 kts 216°
2026-04-15 11:57 51.60752 -4.06518 292 ft 60 kts 216°
2026-04-15 11:57 51.60271 -4.07068 299 ft 105 kts 213°
2026-04-15 11:58 51.59661 -4.07773 561 ft 114 kts 210°
2026-04-15 11:58 51.58856 -4.08565 353 ft 165 kts 207°
2026-04-15 11:58 51.57814 -4.09395 524 ft 164 kts 202°
2026-04-15 11:58 51.56793 -4.09956 768 ft 149 kts 174°
2026-04-15 11:59 51.56003 -4.09057 932 ft 147 kts 109°
2026-04-15 11:59 51.56166 -4.07476 1051 ft 150 kts 63°
2026-04-15 11:59 51.56925 -4.06337 1143 ft 154 kts 31°
2026-04-15 11:59 51.57868 -4.05504 1255 ft 155 kts 30°
2026-04-15 12:00 51.58814 -4.04673 1386 ft 155 kts 32°
2026-04-15 12:00 51.59713 -4.03702 1732 ft 155 kts 42°
2026-04-15 12:00 51.60478 -4.02383 1930 ft 171 kts 58°
2026-04-15 12:00 51.61047 -4.00651 1946 ft 183 kts 71°
2026-04-15 12:01 51.61455 -3.98659 1965 ft 192 kts 77°
2026-04-15 12:01 51.61780 -3.96545 1967 ft 197 kts 80°
2026-04-15 12:01 51.62072 -3.94373 1965 ft 200 kts 81°
2026-04-15 12:01 51.62356 -3.92168 1962 ft 202 kts 81°
2026-04-15 12:02 51.62634 -3.89943 1970 ft 203 kts 81°
2026-04-15 12:02 51.62693 -3.87719 1958 ft 198 kts 103°
2026-04-15 12:02 51.62178 -3.85699 1960 ft 195 kts 127°
2026-04-15 12:02 51.61268 -3.84115 1964 ft 192 kts 136°
2026-04-15 12:03 51.60343 -3.82597 1970 ft 193 kts 135°
2026-04-15 12:03 51.59405 -3.81047 1975 ft 193 kts 135°
2026-04-15 12:03 51.58463 -3.79495 1978 ft 194 kts 135°
2026-04-15 12:03 51.57517 -3.77940 1978 ft 194 kts 135°
2026-04-15 12:04 51.56573 -3.76392 1986 ft 194 kts 135°
2026-04-15 12:04 51.55627 -3.74842 1989 ft 194 kts 136°
2026-04-15 12:04 51.54681 -3.73302 1988 ft 194 kts 136°
2026-04-15 12:04 51.53736 -3.71759 1995 ft 194 kts 136°
2026-04-15 12:05 51.52788 -3.70210 1999 ft 194 kts 136°
2026-04-15 12:05 51.51854 -3.68681 1998 ft 194 kts 136°
2026-04-15 12:05 51.50905 -3.67134 1999 ft 195 kts 136°
2026-04-15 12:05 51.49955 -3.65586 2004 ft 195 kts 136°
2026-04-15 12:06 51.49003 -3.64038 2006 ft 195 kts 136°
2026-04-15 12:06 51.48051 -3.62491 2007 ft 195 kts 136°
2026-04-15 12:06 51.47099 -3.60944 2011 ft 195 kts 136°
2026-04-15 12:06 51.46149 -3.59395 2011 ft 195 kts 136°
2026-04-15 12:07 51.45209 -3.57868 2011 ft 195 kts 136°
2026-04-15 12:07 51.44259 -3.56331 2016 ft 194 kts 135°
2026-04-15 12:07 51.43317 -3.54799 2014 ft 192 kts 134°
2026-04-15 12:07 51.42381 -3.53278 2013 ft 191 kts 135°
2026-04-15 12:08 51.41449 -3.51769 2019 ft 191 kts 135°
2026-04-15 12:08 51.40516 -3.50259 2020 ft 191 kts 135°
2026-04-15 12:08 51.39581 -3.48748 2017 ft 191 kts 135°
2026-04-15 12:08 51.38647 -3.47238 2017 ft 190 kts 135°
2026-04-15 12:09 51.37718 -3.45737 2013 ft 189 kts 135°
2026-04-15 12:09 51.36793 -3.44240 2015 ft 189 kts 135°
2026-04-15 12:09 51.35884 -3.42773 2016 ft 189 kts 135°
2026-04-15 12:09 51.34954 -3.41276 2018 ft 190 kts 135°
2026-04-15 12:10 51.34024 -3.39777 2019 ft 190 kts 135°
2026-04-15 12:10 51.33092 -3.38278 2018 ft 190 kts 135°
2026-04-15 12:10 51.32159 -3.36777 2019 ft 190 kts 135°
2026-04-15 12:10 51.31231 -3.35280 2019 ft 189 kts 135°
2026-04-15 12:11 51.30303 -3.33782 2017 ft 189 kts 135°
2026-04-15 12:11 51.29378 -3.32288 2018 ft 190 kts 135°
2026-04-15 12:11 51.28460 -3.30812 2020 ft 190 kts 135°
2026-04-15 12:11 51.27529 -3.29313 2020 ft 190 kts 135°
2026-04-15 12:12 51.26597 -3.27820 2019 ft 190 kts 135°
2026-04-15 12:12 51.25659 -3.26316 2017 ft 190 kts 135°
2026-04-15 12:12 51.24728 -3.24823 2011 ft 190 kts 135°
2026-04-15 12:12 51.23795 -3.23329 2018 ft 190 kts 135°
2026-04-15 12:13 51.22862 -3.21841 2018 ft 189 kts 136°
2026-04-15 12:13 51.21929 -3.20351 2020 ft 190 kts 136°
2026-04-15 12:13 51.20996 -3.18859 2019 ft 190 kts 136°
2026-04-15 12:13 51.20073 -3.17384 2015 ft 190 kts 136°
2026-04-15 12:14 51.19141 -3.15896 2026 ft 190 kts 136°
2026-04-15 12:14 51.18201 -3.14396 2018 ft 191 kts 136°
2026-04-15 12:14 51.17258 -3.12892 2019 ft 192 kts 136°
2026-04-15 12:14 51.16317 -3.11389 2029 ft 192 kts 136°
2026-04-15 12:15 51.15372 -3.09884 2010 ft 192 kts 136°
2026-04-15 12:15 51.14428 -3.08382 2014 ft 192 kts 136°
2026-04-15 12:15 51.13485 -3.06882 2012 ft 192 kts 136°
2026-04-15 12:15 51.12553 -3.05402 2019 ft 192 kts 136°
2026-04-15 12:16 51.11607 -3.03902 2021 ft 192 kts 136°